N2MWY Weather Reports


Display with metric or nautical units.
time (UTC)temp
F
wind
direction
speed
MPH
gust
MPH
rain 1hr
in
rain 24hr
in
rain mn
in
humidity
%
barometer
mb
20260509024323 52 181 1.0 3.0 0.00 0.00 0.00 82 1014.0
20260509023823 52 181 1.0 6.0 0.00 0.00 0.00 82 1014.1
20260509023323 52 180 1.0 6.0 0.00 0.00 0.00 82 1014.1
20260509023054 51 194 0.0 5.0 0.00 0.00 0.00 82 1014.1
20260509022322 51 198 0.0 5.0 0.00 0.00 0.00 82 1014.2
20260509021822 51 189 0.0 4.0 0.00 0.00 0.00 81 1014.2
20260509021322 51 203 0.0 3.0 0.00 0.00 0.00 81 1014.1
20260509020820 51 205 0.0 3.0 0.00 0.00 0.00 81 1014.2
20260509020320 51 182 0.0 2.0 0.00 0.00 0.00 81 1014.0
20260509020051 51 182 0.0 2.0 0.00 0.00 0.00 80 1013.9
20260509015321 51 172 0.0 0.0 0.00 0.00 0.00 80 1013.9
20260509015052 51 171 0.0 4.0 0.00 0.00 0.00 79 1013.9
20260509014319 51 165 0.0 4.0 0.00 0.00 0.00 78 1013.9
20260509013820 51 164 0.0 0.0 0.00 0.00 0.00 78 1013.8
20260509013322 51 164 0.0 0.0 0.00 0.00 0.00 78 1013.7
20260509012815 51 164 0.0 0.0 0.00 0.00 0.00 77 1013.6
20260509012308 51 164 0.0 0.0 0.00 0.00 0.00 77 1013.6
20260509011803 51 163 0.0 0.0 0.00 0.00 0.00 77 1013.6
20260509011257 52 164 0.0 0.0 0.00 0.00 0.00 77 1013.5
20260509010750 52 163 0.0 0.0 0.00 0.00 0.00 76 1013.4
20260509010244 52 164 0.0 0.0 0.00 0.00 0.00 76 1013.4
20260509005738 52 163 0.0 0.0 0.00 0.00 0.00 76 1013.4
20260509005232 52 163 0.0 0.0 0.00 0.00 0.00 76 1013.4
20260509004726 52 163 0.0 0.0 0.00 0.00 0.00 75 1013.3
20260509004224 52 163 0.0 1.0 0.00 0.00 0.00 75 1013.2
20260509003710 52 175 0.0 2.0 0.00 0.00 0.00 75 1013.2
20260509003204 53 171 0.0 2.0 0.00 0.00 0.00 74 1013.1
20260509002658 53 170 0.0 0.0 0.00 0.00 0.00 74 1013.1
20260509002155 53 169 0.0 0.0 0.00 0.00 0.00 74 1013.0
20260509002150 53 169 0.0 0.0 0.00 0.00 0.00 74 1013.0
20260509001643 53 169 0.0 0.0 0.00 0.00 0.00 74 1012.9
20260509000634 54 169 0.0 0.0 0.00 0.00 0.00 73 1012.8
20260509000128 54 169 0.0 0.0 0.00 0.00 0.00 72 1012.8
20260508235622 54 169 0.0 5.0 0.00 0.00 0.00 72 1012.7
20260508235117 54 169 0.0 5.0 0.00 0.00 0.00 71 1012.7
20260508234610 55 166 0.0 1.0 0.00 0.00 0.00 71 1012.5
20260508234105 55 167 0.0 1.0 0.00 0.00 0.00 71 1012.5
20260508233558 55 161 0.0 4.0 0.00 0.00 0.00 71 1012.4
20260508233059 55 161 0.0 4.0 0.00 0.00 0.00 71 1012.3
20260508232559 55 156 0.0 1.0 0.00 0.00 0.00 70 1012.3
20260508232058 56 155 0.0 1.0 0.00 0.00 0.00 70 1012.3
20260508231555 56 155 0.0 2.0 0.00 0.00 0.00 70 1012.3
20260508231054 56 155 1.0 3.0 0.00 0.00 0.00 69 1012.2
20260508230826 56 155 1.0 3.0 0.00 0.00 0.00 69 1012.2
20260508230054 56 221 2.0 7.0 0.00 0.00 0.00 69 1012.2
20260508225554 56 221 3.0 9.0 0.00 0.00 0.00 68 1012.2
20260508225055 56 217 3.0 9.0 0.00 0.00 0.00 68 1012.2
20260508224552 56 173 3.0 9.0 0.00 0.00 0.00 68 1012.2
20260508224052 56 213 2.0 5.0 0.00 0.00 0.00 68 1012.2
20260508223553 56 182 2.0 6.0 0.00 0.00 0.00 68 1012.2
20260508223051 56 182 2.0 6.0 0.00 0.00 0.00 68 1012.3
20260508222553 56 175 2.0 9.0 0.00 0.00 0.00 67 1012.2
20260508222051 56 173 3.0 9.0 0.00 0.00 0.00 66 1012.1
20260508221552 56 206 2.0 6.0 0.00 0.00 0.00 66 1012.2
20260508221054 57 148 2.0 8.0 0.00 0.00 0.00 66 1012.2
20260508220548 57 190 3.0 9.0 0.00 0.00 0.00 66 1012.2
20260508220042 57 183 3.0 9.0 0.00 0.00 0.00 65 1012.2
20260508215536 57 204 2.0 6.0 0.00 0.00 0.00 65 1012.3
20260508215031 57 232 2.0 7.0 0.00 0.00 0.00 64 1012.3
20260508214809 57 205 2.0 6.0 0.00 0.00 0.00 64 1012.2
20260508214532 57 189 2.0 7.0 0.00 0.00 0.00 64 1012.2
20260508213803 57 210 2.0 7.0 0.00 0.00 0.00 64 1012.3
20260508213032 57 173 1.0 7.0 0.00 0.00 0.00 64 1012.4
20260508212533 58 198 2.0 7.0 0.00 0.00 0.00 63 1012.4
20260508212033 58 281 2.0 9.0 0.00 0.00 0.00 63 1012.3
20260508211532 58 276 3.0 9.0 0.00 0.00 0.00 62 1012.3
20260508211030 58 327 3.0 9.0 0.00 0.00 0.00 62 1012.3
20260508210530 58 213 4.0 10.0 0.00 0.00 0.00 61 1012.3
20260508210300 58 253 3.0 14.0 0.00 0.00 0.00 61 1012.4
20260508205530 58 279 3.0 14.0 0.00 0.00 0.00 62 1012.3
20260508205032 58 168 3.0 10.0 0.00 0.00 0.00 62 1012.3
20260508204528 59 154 4.0 11.0 0.00 0.00 0.00 63 1012.3
20260508204028 59 236 5.0 13.0 0.00 0.00 0.00 63 1012.2
20260508203532 59 178 4.0 11.0 0.00 0.00 0.00 65 1012.0
20260508203528 59 228 4.0 13.0 0.00 0.00 0.00 63 1012.0
20260508202523 59 161 4.0 14.0 0.00 0.00 0.00 64 1012.0
20260508202017 58 234 5.0 14.0 0.00 0.00 0.00 64 1012.0
20260508201511 58 182 4.0 11.0 0.00 0.00 0.00 64 1011.9
20260508201237 58 184 4.0 11.0 0.00 0.00 0.00 63 1011.8
20260508200459 58 154 4.0 10.0 0.00 0.00 0.00 63 1012.1
20260508195953 58 204 4.0 11.0 0.00 0.00 0.00 63 1012.2
20260508195453 57 252 3.0 11.0 0.00 0.00 0.00 64 1012.2
20260508195223 57 219 2.0 10.0 0.00 0.00 0.00 63 1012.1
20260508194452 57 288 2.0 8.0 0.00 0.00 0.00 64 1012.2
20260508193949 57 223 3.0 8.0 0.00 0.00 0.00 63 1012.0
20260508193449 58 183 3.0 9.0 0.00 0.00 0.00 63 1011.8
20260508193220 58 200 3.0 12.0 0.00 0.00 0.00 64 1011.8
20260508192450 58 207 3.0 12.0 0.00 0.00 0.00 63 1011.9
20260508191950 59 183 4.0 10.0 0.00 0.00 0.00 62 1011.8
20260508191719 59 240 4.0 11.0 0.00 0.00 0.00 60 1011.7
20260508190947 59 238 4.0 11.0 0.00 0.00 0.00 58 1011.7
20260508190447 59 182 4.0 16.0 0.00 0.00 0.00 57 1011.6
20260508185947 59 230 5.0 16.0 0.00 0.00 0.00 58 1011.5
20260508185446 60 198 5.0 14.0 0.00 0.00 0.00 56 1011.4
20260508184946 60 218 5.0 17.0 0.00 0.00 0.00 54 1011.4
20260508184717 60 210 5.0 17.0 0.00 0.00 0.00 54 1011.4
20260508184217 61 261 4.0 14.0 0.00 0.00 0.00 54 1011.5
20260508183441 61 218 5.0 14.0 0.00 0.00 0.00 52 1011.5
20260508182935 62 285 5.0 12.0 0.00 0.00 0.00 52 1011.5
20260508182429 62 227 4.0 13.0 0.00 0.00 0.00 54 1011.6
20260508182154 61 220 4.0 13.0 0.00 0.00 0.00 52 1011.7
20260508181417 62 259 5.0 17.0 0.00 0.00 0.00 51 1011.7
20260508180911 61 280 6.0 17.0 0.00 0.00 0.00 53 1011.7
20260508180405 61 216 4.0 12.0 0.00 0.00 0.00 49 1011.7
20260508180131 62 198 4.0 15.0 0.00 0.00 0.00 48 1011.7
20260508175352 62 234 4.0 14.0 0.00 0.00 0.00 49 1011.7
20260508174847 62 234 5.0 15.0 0.00 0.00 0.00 49 1011.6
20260508174341 63 226 5.0 13.0 0.00 0.00 0.00 47 1011.6
20260508173835 62 155 5.0 13.0 0.00 0.00 0.00 50 1011.6
20260508173328 62 180 5.0 20.0 0.00 0.00 0.00 49 1011.7
20260508173053 63 234 5.0 20.0 0.00 0.00 0.00 48 1011.8
20260508172317 64 132 5.0 13.0 0.00 0.00 0.00 47 1011.8
20260508171810 64 238 4.0 13.0 0.00 0.00 0.00 46 1011.9
20260508171304 64 246 5.0 18.0 0.00 0.00 0.00 49 1011.9
20260508170758 63 275 6.0 18.0 0.00 0.00 0.00 45 1011.8
20260508170252 64 287 5.0 14.0 0.00 0.00 0.00 45 1011.8
20260508165746 63 216 5.0 14.0 0.00 0.00 0.00 49 1011.9
20260508165513 62 194 6.0 19.0 0.00 0.00 0.00 52 1012.1
20260508164735 62 225 5.0 19.0 0.00 0.00 0.00 50 1012.0
20260508164228 62 213 5.0 12.0 0.00 0.00 0.00 52 1012.1
20260508163723 63 210 5.0 12.0 0.00 0.00 0.00 52 1012.2
20260508163217 63 184 5.0 12.0 0.00 0.00 0.00 53 1012.1
20260508162711 64 204 5.0 14.0 0.00 0.00 0.00 54 1012.2
20260508162205 63 230 5.0 14.0 0.00 0.00 0.00 50 1012.1
20260508161659 62 164 4.0 13.0 0.00 0.00 0.00 54 1012.1
20260508161425 62 171 4.0 13.0 0.00 0.00 0.00 54 1012.2
20260508160647 64 180 5.0 17.0 0.00 0.00 0.00 53 1012.3
20260508160141 63 251 5.0 17.0 0.00 0.00 0.00 51 1012.3
20260508155635 65 225 4.0 12.0 0.00 0.00 0.00 42 1012.4
20260508155128 65 306 4.0 12.0 0.00 0.00 0.00 39 1012.3
20260508154622 64 235 3.0 9.0 0.00 0.00 0.00 51 1012.4
20260508154116 64 153 3.0 10.0 0.00 0.00 0.00 43 1012.5
20260508153843 63 225 4.0 11.0 0.00 0.00 0.00 48 1012.5
20260508153105 64 216 3.0 10.0 0.00 0.00 0.00 53 1012.4
20260508152559 63 279 4.0 13.0 0.00 0.00 0.00 54 1012.5
20260508152323 62 195 5.0 13.0 0.00 0.00 0.00 56 1012.5
20260508151818 62 123 4.0 13.0 0.00 0.00 0.00 56 1012.5
20260508151041 63 214 4.0 14.0 0.00 0.00 0.00 53 1012.6
20260508150535 64 232 4.0 14.0 0.00 0.00 0.00 50 1012.7
20260508150300 64 284 3.0 10.0 0.00 0.00 0.00 42 1012.6
20260508145523 64 279 3.0 10.0 0.00 0.00 0.00 36 1012.7
20260508145017 64 238 3.0 9.0 0.00 0.00 0.00 37 1012.6
20260508144511 64 232 2.0 8.0 0.00 0.00 0.00 38 1012.7
20260508144004 63 291 3.0 11.0 0.00 0.00 0.00 38 1012.7
20260508143458 63 241 3.0 11.0 0.00 0.00 0.00 40 1012.6
20260508142952 62 232 3.0 8.0 0.00 0.00 0.00 41 1012.5
20260508142447 62 251 3.0 9.0 0.00 0.00 0.00 44 1012.5
20260508142057 62 230 2.0 6.0 0.00 0.00 0.00 48 1012.5
20260508141951 62 238 2.0 6.0 0.00 0.00 0.00 46 1012.5
20260508141946 62 235 2.0 9.0 0.00 0.00 0.00 46 1012.5
20260508140655 61 308 2.0 6.0 0.00 0.00 0.00 46 1012.5
20260508135917 61 238 2.0 6.0 0.00 0.00 0.00 47 1012.6
20260508135411 62 280 2.0 6.0 0.00 0.00 0.00 47 1012.6
20260508134904 61 303 2.0 11.0 0.00 0.00 0.00 50 1012.7
20260508134358 61 9 3.0 11.0 0.00 0.00 0.00 51 1012.7
20260508133854 60 42 2.0 7.0 0.00 0.00 0.00 53 1012.8
20260508133625 60 263 2.0 6.0 0.00 0.00 0.00 51 1012.7
20260508132852 60 286 2.0 12.0 0.00 0.00 0.00 54 1012.8
20260508132350 60 236 2.0 12.0 0.00 0.00 0.00 54 1012.9
20260508131850 59 22 3.0 11.0 0.00 0.00 0.00 55 1012.9
20260508131350 59 191 3.0 11.0 0.00 0.00 0.00 54 1012.9
20260508131122 59 254 2.0 6.0 0.00 0.00 0.00 53 1012.9
20260508130348 59 294 2.0 9.0 0.00 0.00 0.00 56 1012.9
20260508125845 59 245 3.0 10.0 0.00 0.00 0.00 57 1012.9
20260508125346 58 222 3.0 10.0 0.00 0.00 0.00 56 1012.9
20260508124848 58 287 2.0 7.0 0.00 0.00 0.00 58 1013.0
20260508124616 58 18 2.0 7.0 0.00 0.00 0.00 61 1012.9
20260508123847 58 305 2.0 7.0 0.00 0.00 0.00 61 1012.9
20260508123345 56 259 2.0 8.0 0.00 0.00 0.00 66 1012.9
20260508122842 55 268 2.0 8.0 0.00 0.00 0.00 69 1012.9
20260508122343 54 227 2.0 7.0 0.00 0.00 0.00 70 1012.8
20260508121841 53 225 2.0 7.0 0.00 0.00 0.00 70 1012.8
20260508121342 53 257 2.0 9.0 0.00 0.00 0.00 72 1012.7
20260508121337 52 275 2.0 9.0 0.00 0.00 0.00 74 1012.8
20260508120328 51 223 2.0 6.0 0.00 0.00 0.00 75 1012.7
20260508115823 51 235 1.0 6.0 0.00 0.00 0.00 78 1012.7
20260508115317 50 277 1.0 3.0 0.00 0.01 0.00 79 1012.7
20260508114810 50 277 1.0 4.0 0.00 0.01 0.00 80 1012.7
20260508114304 49 277 1.0 4.0 0.00 0.01 0.00 81 1012.7
20260508113759 49 310 1.0 4.0 0.00 0.01 0.00 82 1012.7
20260508113252 49 309 1.0 4.0 0.00 0.01 0.00 83 1012.7
20260508112746 48 283 1.0 3.0 0.00 0.01 0.00 84 1012.6
20260508112240 48 284 1.0 4.0 0.00 0.01 0.00 84 1012.5
20260508111734 47 283 1.0 4.0 0.00 0.01 0.00 85 1012.4
20260508111228 47 321 0.0 3.0 0.00 0.01 0.00 85 1012.3
20260508110723 47 321 0.0 3.0 0.00 0.01 0.00 85 1012.3
20260508110448 47 321 0.0 3.0 0.00 0.01 0.00 84 1012.2
20260508105710 46 331 0.0 2.0 0.00 0.01 0.00 84 1012.1
20260508105205 46 331 0.0 2.0 0.00 0.01 0.00 84 1012.0
20260508104659 46 331 1.0 5.0 0.00 0.01 0.00 83 1012.0
20260508104429 46 331 1.0 5.0 0.00 0.01 0.00 83 1012.0
20260508103930 46 327 1.0 4.0 0.00 0.01 0.00 83 1011.9
20260508103159 46 327 1.0 3.0 0.00 0.02 0.00 83 1012.0
20260508102657 46 326 1.0 3.0 0.00 0.03 0.00 83 1012.1
20260508102425 46 327 0.0 3.0 0.00 0.04 0.00 82 1012.0
20260508101655 46 324 0.0 3.0 0.00 0.05 0.00 82 1011.9
20260508101155 46 324 0.0 3.0 0.00 0.05 0.00 82 1011.9
20260508100925 46 324 0.0 3.0 0.00 0.06 0.00 82 1011.8
20260508100152 46 324 0.0 3.0 0.00 0.06 0.00 82 1011.7
20260508095649 46 324 0.0 3.0 0.00 0.06 0.00 82 1011.8
20260508095147 46 350 0.0 2.0 0.00 0.06 0.00 81 1011.8
20260508094649 46 350 0.0 1.0 0.00 0.06 0.00 81 1011.7
20260508094148 46 350 0.0 4.0 0.00 0.06 0.00 81 1011.5
20260508093647 46 351 1.0 4.0 0.00 0.06 0.00 81 1011.5
20260508093147 47 350 1.0 4.0 0.00 0.06 0.00 81 1011.4
20260508092646 47 350 1.0 4.0 0.00 0.06 0.00 81 1011.2
20260508092145 47 350 1.0 5.0 0.00 0.06 0.00 81 1011.2
20260508091918 47 350 2.0 6.0 0.00 0.06 0.00 82 1011.2
20260508091141 47 355 2.0 6.0 0.00 0.06 0.00 82 1011.2
20260508091136 47 355 1.0 5.0 0.00 0.07 0.00 82 1011.2
20260508090128 46 355 1.0 8.0 0.00 0.07 0.00 83 1011.3
20260508085628 46 355 2.0 8.0 0.00 0.07 0.00 83 1011.3
20260508085125 46 355 2.0 6.0 0.00 0.07 0.00 83 1011.2
20260508084625 46 355 3.0 10.0 0.00 0.07 0.00 84 1011.2
20260508084125 46 346 5.0 11.0 0.00 0.07 0.00 84 1011.2
20260508083625 46 341 4.0 11.0 0.00 0.07 0.00 84 1011.2
20260508083125 46 340 4.0 11.0 0.00 0.08 0.00 85 1011.2
20260508082626 46 351 4.0 11.0 0.00 0.08 0.00 85 1011.2
20260508082126 46 351 4.0 11.0 0.00 0.08 0.00 85 1011.2
20260508081627 46 342 4.0 11.0 0.00 0.08 0.00 86 1011.3
20260508081126 46 346 5.0 14.0 0.00 0.08 0.00 86 1011.3
20260508080626 46 342 5.0 14.0 0.00 0.08 0.00 86 1011.4
20260508080127 46 9 4.0 11.0 0.00 0.08 0.00 87 1011.5
20260508075627 46 9 3.0 10.0 0.00 0.08 0.00 87 1011.5
20260508074626 45 313 4.0 15.0 0.00 0.09 0.00 88 1011.6
20260508074126 45 0 6.0 15.0 0.00 0.09 0.00 88 1011.4
20260508073620 44 355 7.0 19.0 0.00 0.09 0.00 89 1011.4
20260508073114 44 5 6.0 19.0 0.00 0.09 0.00 89 1011.4
20260508072839 44 350 4.0 15.0 0.00 0.09 0.00 89 1011.2
20260508072103 43 312 5.0 15.0 0.00 0.10 0.00 89 1011.1
20260508071557 43 0 4.0 15.0 0.00 0.11 0.00 89 1011.2
20260508071050 43 0 2.0 12.0 0.00 0.14 0.00 89 1011.3
20260508070545 43 300 1.0 10.0 0.00 0.22 0.00 89 1011.4
20260508070039 43 329 1.0 5.0 0.00 0.24 0.00 88 1011.3
20260508065803 43 202 0.0 1.0 0.00 0.25 0.00 88 1011.3
20260508065027 43 202 0.0 1.0 0.00 0.25 0.00 88 1011.1
20260508064521 43 202 0.0 0.0 0.00 0.25 0.00 88 1010.7
20260508064014 43 202 0.0 0.0 0.00 0.25 0.00 88 1010.3
20260508063509 43 202 0.0 0.0 0.00 0.25 0.00 88 1010.1
20260508063005 43 202 0.0 0.0 0.00 0.25 0.00 88 1009.8
20260508062959 43 202 0.0 0.0 0.00 0.25 0.00 87 1010.0
20260508061951 43 202 0.0 0.0 0.00 0.25 0.00 87 1010.1
20260508061445 44 202 0.0 0.0 0.00 0.25 0.00 87 1009.8
20260508060939 44 202 0.0 1.0 0.00 0.25 0.00 87 1009.8
20260508060432 44 202 0.0 1.0 0.00 0.25 0.00 87 1009.7
20260508055926 44 202 0.0 0.0 0.00 0.25 0.00 87 1009.6
20260508055421 44 202 0.0 0.0 0.00 0.25 0.00 87 1009.4
20260508055146 44 202 0.0 1.0 0.00 0.25 0.00 87 1009.6
20260508054408 44 202 0.0 1.0 0.00 0.25 0.00 86 1009.6
20260508053902 45 202 0.0 0.0 0.00 0.25 0.00 86 1009.7
20260508053356 45 202 0.0 0.0 0.00 0.25 0.00 86 1009.7
20260508052858 45 202 0.0 0.0 0.00 0.25 0.00 86 1009.7
20260508052353 45 202 0.0 0.0 0.00 0.25 0.00 86 1009.7
20260508051853 45 202 0.0 0.0 0.00 0.25 0.00 86 1009.7
20260508051626 45 202 0.0 0.0 0.00 0.25 0.00 86 1009.7
20260508051124 46 202 0.0 2.0 0.00 0.25 0.00 86 1009.7
20260508050621 46 202 0.0 2.0 0.00 0.25 0.00 86 1009.5
20260508050508 46 202 0.0 0.0 0.00 0.25 0.00 85 1009.5
20260508045352 46 202 0.0 0.0 0.00 0.25 0.00 85 1009.4
20260508045119 46 202 0.0 0.0 0.00 0.25 0.00 85 1009.5
20260508044346 46 202 0.0 0.0 0.00 0.25 0.00 84 1009.6
20260508043847 46 202 0.0 0.0 0.00 0.25 0.00 84 1009.8
20260508043346 46 202 0.0 0.0 0.00 0.25 0.00 84 1009.8
20260508042848 47 202 0.0 0.0 0.00 0.25 0.00 84 1009.8
20260508042347 47 202 0.0 2.0 0.00 0.25 0.00 83 1009.8
20260508041845 47 202 0.0 2.0 0.00 0.25 0.00 83 1009.9
20260508041342 47 202 0.0 0.0 0.00 0.25 0.00 83 1009.8
20260508040840 47 202 0.0 0.0 0.00 0.25 0.00 83 1009.8
20260508040340 47 202 0.0 0.0 0.00 0.25 0.00 82 1009.7
20260508035840 47 202 0.0 0.0 0.00 0.25 0.25 82 1009.7
20260508035334 47 202 0.0 0.0 0.00 0.25 0.25 82 1009.7
20260508034828 47 202 0.0 1.0 0.00 0.25 0.25 82 1009.7
20260508034322 48 202 0.0 1.0 0.00 0.25 0.25 82 1009.7
20260508033817 48 202 0.0 0.0 0.00 0.25 0.25 81 1009.8
20260508033311 48 202 0.0 0.0 0.00 0.25 0.25 80 1009.7
20260508032805 48 202 0.0 0.0 0.00 0.25 0.25 80 1009.7
20260508032259 48 202 0.0 0.0 0.00 0.25 0.25 80 1009.6
20260508032023 48 202 0.0 0.0 0.00 0.25 0.25 79 1009.7
20260508031247 48 202 0.0 0.0 0.00 0.25 0.25 79 1009.7
20260508030741 48 202 0.0 0.0 0.00 0.25 0.25 79 1009.7
20260508030240 49 202 0.0 0.0 0.00 0.25 0.25 79 1009.7
20260508025737 49 202 0.0 0.0 0.00 0.25 0.25 79 1009.7
20260508025238 49 202 0.0 0.0 0.00 0.25 0.25 79 1009.7
20260508024740 49 202 0.0 0.0 0.00 0.25 0.25 79 1009.8